Simultaneous Nadir Overpasses (SNOs) Predictions

Prediction of SNOs between AURA and NPP Satellite Orbit:

Table of predicted SNOs for the next 14.0 days since TLE Epoch: 5/3/2025
Index Date (AURA) Time (AURA) Lat,Lon (AURA) SZA (AURA ) Date (NPP) Time (NPP) Lat,Lon (NPP) SZA (NPP ) Distance(km) Time Diff (sec)
1 05/03/2025 07:24:19 -81.08, 167.95 107.11 05/03/2025 07:23:46 -81.08, 168.09 107.11 2.49 33
2 05/03/2025 08:13:38 81.10, -24.13 72.85 05/03/2025 08:14:29 81.10, -24.02 72.80 1.98 51
3 05/05/2025 18:36:14 -81.09, 0.13 107.84 05/05/2025 18:36:14 -81.09, 0.21 107.85 1.31 0
4 05/08/2025 04:58:47 81.08, 24.41 71.51 05/08/2025 04:57:57 81.07, 24.33 71.55 1.58 50
5 05/08/2025 05:48:07 -81.09,-167.80 108.52 05/08/2025 05:48:41 -81.09,-167.74 108.56 1.34 34
6 05/10/2025 16:10:39 81.09,-143.30 70.82 05/10/2025 16:10:24 81.09,-143.34 70.84 0.91 15
7 05/10/2025 16:59:59 -81.10, 24.51 109.21 05/10/2025 17:01:08 -81.11, 24.63 109.27 2.26 69
8 05/13/2025 02:33:12 -81.07,-119.28 109.74 05/13/2025 02:32:09 -81.07,-119.18 109.71 1.93 63
9 05/13/2025 03:22:30 81.10, 48.87 70.19 05/13/2025 03:22:51 81.10, 48.94 70.16 1.14 21
10 05/15/2025 13:45:01 -81.09, 73.16 110.38 05/15/2025 13:44:36 -81.09, 73.07 110.35 1.78 25



Historial Predications of SNOs between AURA and NPP
